Regional Weather Roundup
Issued by NWS Spokane, WA

Home | Current Version | Previous Version | Text Only | Print | Product List | Glossary On
Versions: 1 2 3 4 5 6 7 8 9 10 11 12 13 14 15 16 17 18 19 20 21 22 23 24 25 26 27 28 29 30 31 32 33 34 35 36 37 38 39 40 41 42 43 44 45 46 47 48 49 50
000
NZUS01 KOTX 171310
RWROTX
EASTERN WASHINGTON/NORTHERN IDAHO ROUNDUP
NATIONAL WEATHER SERVICE, SPOKANE WA
600 AM PDT THU APR 17 2014

Note: "fair" indicated few or no clouds below 12,000 feet with no
significant weather and/or obstructions to visibility.

...NORTHEAST WASHINGTON AND NORTHERN IDAHO PANHANDLE...

CITY           SKY/WX    TMP DP  RH WIND       PRES   REMARKS
SPOKANE INTL   LGT RAIN  43  41  93 S7        29.86F
SPOKANE DOWNTO LGT RAIN  45  42  89 NE3       29.89S
COEUR D ALENE  CLOUDY    43  39  87 S9        29.89S
DEER PARK      LGT RAIN  42  41  96 CALM      29.87F
SANDPOINT      LGT RAIN  41  41 100 CALM      29.88S

...SOUTHEAST WASHINGTON AND SOUTHERN IDAHO PANHANDLE...

CITY           SKY/WX    TMP DP  RH WIND       PRES   REMARKS
WALLA WALLA    LGT RAIN  51  45  79 SE5       29.89F
PULLMAN/MOSCOW CLOUDY    43  40  89 E7        29.91F
LEWISTON       CLOUDY    48  38  68 NE6       29.89F
LOWELL           N/A     43  39  86 NW5       29.97F

...COLUMBIA BASIN...

CITY           SKY/WX    TMP DP  RH WIND       PRES   REMARKS
EPHRATA        CLOUDY    48  44  86 CALM      29.83F
MOSES LAKE     CLOUDY    48  46  93 S8        29.84F
TRI CITIES     LGT RAIN  53  46  77 S12       29.87F
HERMISTON      LGT RAIN  50  47  89 S6        29.88F
PENDLETON      CLOUDY    46  40  79 CALM      29.88F

...EAST SLOPES CASCADES...

CITY           SKY/WX    TMP DP  RH WIND       PRES   REMARKS
THE DALLES     CLOUDY    51  45  79 S5        29.89F
YAKIMA         CLOUDY    49  40  71 W5        29.85F
ELLENSBURG     CLOUDY    43  39  86 NE3       29.85S
WENATCHEE      MOCLDY    49  37  63 NW7       29.83F
OMAK           CLOUDY    49  40  71 S8        29.81F

...SOUTHERN BRITISH COLUMBIA...

CITY           SKY/WX    TMP DP  RH WIND       PRES   REMARKS
PENTICTON      CLOUDY    45  43  93 N3        29.80S
CASTLEGAR      LGT RAIN  43  43 100 VRB2      29.84  FOG
CRANBROOK      CLOUDY    41  34  75 SE7       29.82S

...WESTERN MONTANA...

CITY           SKY/WX    TMP DP  RH WIND       PRES   REMARKS
MISSOULA       CLOUDY    42  34  73 SE7       29.93F

...NEIGHBORING CITIES...

CITY           SKY/WX    TMP DP  RH WIND       PRES   REMARKS
SEATTLE        LGT RAIN  50  48  93 S9        29.88F
CALGARY        CLOUDY    28  27  93 S9        29.77F FOG     WCI  20



USA.gov is the U.S. government's official web portal to all federal, state and local government web resources and services.